Date String (YYYY-MM-DD hh:mm:ss) UTC,Instrument flags,Ambient pressure (hPa),Sample flow (lpm),Bypass flow (lpm),Sample temperature (°C),Ambient temperature (°C),ASC tube jacket temperature (°C),LED temperature (°C),Box temperature (°C),Sample RH (%),Span deviation,Mass concentration (μg/m³),Mass concentration (μg/m³),Mass concentration (μg/m³)
DateTimeUTC,F1_M11,P_M11,Q1_M11,Q2_M11,T1_M11,T2_M11,T3_M11,T4_M11,T5_M11,U1_M11,ZSPAN_M11,X0_M11,X2_M11,X1_M11
2021-10-07 21:00:00,,0826.5,4.99,0.00,29.4,26.6,00.0,38.5,31.0,14.7,0000.0,0006.90,0003.30,0002.65
2021-10-07 21:01:00,,0826.5,5.01,0.00,29.4,27.1,00.0,38.5,31.1,14.6,0000.0,0007.48,0003.29,0002.64
2021-10-07 21:02:00,,0826.5,5.00,0.00,29.4,27.5,00.0,38.5,31.2,14.5,0000.0,0007.76,0003.29,0002.64
2021-10-07 21:03:00,,0826.5,4.99,0.00,29.4,27.9,00.0,38.5,31.3,14.6,0000.0,0007.22,0003.31,0002.66
2021-10-07 21:04:00,,0826.5,4.98,0.00,29.5,28.2,00.0,38.5,31.4,14.7,0000.0,0007.51,0003.27,0002.65
2021-10-07 21:05:00,,0826.5,5.01,0.00,29.5,28.4,00.0,38.5,31.4,14.6,0000.0,0007.69,0003.26,0002.64
2021-10-07 21:06:00,,0826.5,4.99,0.00,29.6,28.6,00.0,38.5,31.5,14.6,0000.0,0008.32,0003.25,0002.65
2021-10-07 21:07:00,,0826.5,5.00,0.00,29.6,28.8,00.0,38.5,31.6,14.5,0000.0,0009.41,0003.23,0002.65
2021-10-07 21:08:00,,0826.5,5.00,0.00,29.7,28.9,00.0,38.6,31.7,14.5,0000.0,0009.52,0003.20,0002.65
2021-10-07 21:09:00,,0826.5,5.01,0.00,29.8,29.1,00.0,38.6,31.7,14.4,0000.0,0009.45,0003.18,0002.65
2021-10-07 21:10:00,,0826.5,4.99,0.00,29.8,29.0,00.0,38.6,31.7,14.3,0000.0,0009.49,0003.18,0002.67
2021-10-07 21:11:00,,0826.5,5.01,0.00,29.8,27.2,00.0,38.6,31.3,14.5,0000.0,0009.81,0003.17,0002.67
2021-10-07 21:12:00,,0826.5,5.01,0.00,29.6,25.8,00.0,38.6,30.8,14.6,0000.0,0009.41,0003.19,0002.67
2021-10-07 21:13:00,,0826.5,4.99,0.00,29.5,26.1,00.0,38.6,30.9,14.8,0000.0,0009.07,0003.19,0002.68
2021-10-07 21:14:00,,0826.5,5.00,0.00,29.4,26.5,00.0,38.6,30.9,14.6,0000.0,0008.97,0003.17,0002.68
2021-10-07 21:15:00,,0826.5,5.01,0.00,29.4,27.0,00.0,38.5,31.0,14.5,0000.0,0009.03,0003.20,0002.68
2021-10-07 21:16:00,,0826.5,5.00,0.00,29.4,27.4,00.0,38.5,31.2,14.7,0000.0,0009.21,0003.21,0002.68
2021-10-07 21:17:00,,0826.5,4.99,0.00,29.5,27.8,00.0,38.5,31.3,14.8,0000.0,0008.82,0003.25,0002.69
2021-10-07 21:18:00,,0826.5,4.99,0.00,29.5,28.1,00.0,38.5,31.4,14.7,0000.0,0007.89,0003.28,0002.70
2021-10-07 21:19:00,,0826.5,5.00,0.00,29.6,28.4,00.0,38.5,31.4,14.8,0000.0,0007.73,0003.34,0002.73
2021-10-07 21:20:00,,0826.5,5.00,0.00,29.6,28.6,00.0,38.5,31.5,14.8,0000.0,0008.04,0003.36,0002.74
2021-10-07 21:21:00,,0826.5,4.98,0.00,29.7,28.8,00.0,38.6,31.6,14.7,0000.0,0008.16,0003.39,0002.74
2021-10-07 21:22:00,,0826.5,5.01,0.00,29.7,29.0,00.0,38.6,31.7,14.4,0000.0,0007.74,0003.39,0002.76
2021-10-07 21:23:00,,0826.5,4.99,0.00,29.8,29.1,00.0,38.6,31.7,14.4,0000.0,0007.76,0003.41,0002.79
2021-10-07 21:24:00,,0826.5,5.00,0.00,29.8,28.0,00.0,38.7,31.4,14.5,0000.0,0007.70,0003.39,0002.80
2021-10-07 21:25:00,,0826.5,4.99,0.00,29.6,26.1,00.0,38.6,30.9,14.7,0000.0,0007.90,0003.41,0002.80
2021-10-07 21:26:00,,0826.5,5.00,0.00,29.5,25.9,00.0,38.6,30.9,14.8,0000.0,0007.38,0003.39,0002.82
2021-10-07 21:27:00,,0826.4,4.99,0.00,29.4,26.3,00.0,38.6,31.0,14.8,0000.0,0006.98,0003.38,0002.84
2021-10-07 21:28:00,,0826.5,5.01,0.00,29.4,26.8,00.0,38.5,31.0,14.8,0000.0,0006.67,0003.35,0002.86
2021-10-07 21:29:00,,0826.5,5.00,0.00,29.4,27.2,00.0,38.5,31.1,14.8,0000.0,0006.63,0003.33,0002.86
2021-10-07 21:30:00,,0826.5,5.01,0.00,29.5,27.6,00.0,38.5,31.2,14.8,0000.0,0006.31,0003.29,0002.86
2021-10-07 21:31:00,,0826.5,4.99,0.00,29.5,28.0,00.0,38.5,31.3,14.9,0000.0,0005.62,0003.27,0002.85
2021-10-07 21:32:00,,0826.5,5.01,0.00,29.6,28.3,00.0,38.5,31.4,14.9,0000.0,0005.45,0003.24,0002.85
2021-10-07 21:33:00,,0826.5,5.00,0.00,29.6,28.6,00.0,38.6,31.5,14.7,0000.0,0005.97,0003.23,0002.84
2021-10-07 21:34:00,,0826.5,4.98,0.00,29.7,28.6,00.0,38.6,31.6,14.6,0000.0,0006.04,0003.22,0002.84
2021-10-07 21:35:00,,0826.5,5.00,0.00,29.6,26.9,00.0,38.6,31.1,14.6,0000.0,0006.20,0003.25,0002.85
2021-10-07 21:36:00,,0826.5,5.00,0.00,29.4,25.6,00.0,38.5,30.7,14.7,0000.0,0005.85,0003.25,0002.85
2021-10-07 21:37:00,,0826.5,5.00,0.00,29.3,25.8,00.0,38.5,30.7,14.8,0000.0,0006.59,0003.29,0002.86
2021-10-07 21:38:00,,0826.5,5.00,0.00,29.3,26.3,00.0,38.5,30.8,14.8,0000.0,0006.92,0003.30,0002.85
2021-10-07 21:39:00,,0826.5,5.00,0.00,29.2,26.8,00.0,38.4,30.9,14.9,0000.0,0007.00,0003.31,0002.85
2021-10-07 21:40:00,,0826.5,4.99,0.00,29.3,27.2,00.0,38.4,31.0,15.0,0000.0,0006.93,0003.31,0002.84
2021-10-07 21:41:00,,0826.5,5.00,0.00,29.3,27.6,00.0,38.4,31.1,15.1,0000.0,0007.27,0003.34,0002.84
2021-10-07 21:42:00,,0826.5,5.01,0.00,29.4,28.0,00.0,38.4,31.2,15.0,0000.0,0008.32,0003.34,0002.84
2021-10-07 21:43:00,,0826.5,5.00,0.00,29.4,28.2,00.0,38.4,31.3,14.6,0000.0,0009.02,0003.37,0002.85
2021-10-07 21:44:00,,0826.5,5.00,0.00,29.5,28.5,00.0,38.4,31.4,14.6,0000.0,0008.88,0003.39,0002.87
2021-10-07 21:45:00,,0826.5,5.00,0.00,29.5,28.7,00.0,38.5,31.5,14.6,0000.0,0008.88,0003.44,0002.89
2021-10-07 21:46:00,,0826.5,5.00,0.00,29.6,28.8,00.0,38.5,31.6,14.6,0000.0,0008.83,0003.43,0002.89
2021-10-07 21:47:00,,0826.5,4.99,0.00,29.7,29.0,00.0,38.5,31.6,14.7,0000.0,0009.10,0003.47,0002.89
2021-10-07 21:48:00,,0826.4,5.00,0.00,29.7,27.8,00.0,38.5,31.4,14.7,0000.0,0009.77,0003.48,0002.88
2021-10-07 21:49:00,,0826.5,5.01,0.00,29.5,26.0,00.0,38.5,30.8,14.9,0000.0,0010.02,0003.49,0002.87
2021-10-07 21:50:00,,0826.4,5.00,0.00,29.4,25.8,00.0,38.5,30.7,14.7,0000.0,0011.06,0003.50,0002.88
2021-10-07 21:51:00,,0826.4,5.00,0.00,29.3,26.2,00.0,38.5,30.8,14.8,0000.0,0011.42,0003.53,0002.90
2021-10-07 21:52:00,,0826.5,5.01,0.00,29.3,26.7,00.0,38.4,30.9,14.9,0000.0,0012.23,0003.51,0002.90
2021-10-07 21:53:00,,0826.4,4.98,0.00,29.3,27.2,00.0,38.4,31.0,15.0,0000.0,0012.59,0003.51,0002.90
2021-10-07 21:54:00,,0826.5,5.01,0.00,29.3,27.6,00.0,38.4,31.1,14.7,0000.0,0012.11,0003.51,0002.90
2021-10-07 21:55:00,,0826.5,5.01,0.00,29.4,28.0,00.0,38.4,31.2,14.7,0000.0,0012.19,0003.53,0002.89
2021-10-07 21:56:00,,0826.5,5.00,0.00,29.4,28.2,00.0,38.4,31.3,14.5,0000.0,0012.81,0003.49,0002.89
2021-10-07 21:57:00,,0826.5,5.00,0.00,29.5,28.5,00.0,38.4,31.4,14.5,0000.0,0013.95,0003.48,0002.90
2021-10-07 21:58:00,,0826.4,5.00,0.00,29.5,28.6,00.0,38.5,31.5,14.4,0000.0,0013.76,0003.46,0002.92
2021-10-07 21:59:00,,0826.5,5.01,0.00,29.6,28.8,00.0,38.5,31.6,14.4,0000.0,0013.21,0003.43,0002.93
